Location: Harwich
(41.7160°N, 69.9939°W)
Time: 09:58:10
(UTC+02:00)

A-11 Canister half - Pass Details

Date: 24 February 2024
Orbit: 1513 x 1686 km, 47.2° (Epoch: 24 April)

Event Time Altitude Azimuth Distance (km) Brightness Sun altitude
Exits shadow 09:56:32 45° 287° (WNW) 2,160 9.3 -28.0°
Maximum altitude 10:00:00 67° 351° (N) 1,769 9.2 -27.4°
Drops below altitude 10° 10:09:48 10° 73° (ENE) 3,830 12.1 -25.6°
Sets 10:12:55 0° 77° (ENE) 4,793 13.0 -25.0°
